TimeCST,TemperatureF,Dew PointF,Humidity,Sea Level PressureIn,VisibilityMPH,Wind Direction,Wind SpeedMPH,Gust SpeedMPH,PrecipitationIn,Events,Conditions,WindDirDegrees,DateUTC
12:53 AM,24.1,21.0,88,30.30,6.0,Calm,Calm,-,N/A,,Clear,0,2013-01-03 06:53:00
1:53 AM,23.0,19.0,85,30.29,6.0,Calm,Calm,-,N/A,,Clear,0,2013-01-03 07:53:00
2:53 AM,21.9,19.0,89,30.31,6.0,Calm,Calm,-,N/A,,Clear,0,2013-01-03 08:53:00
3:53 AM,21.9,18.0,85,30.30,7.0,Calm,Calm,-,N/A,,Clear,0,2013-01-03 09:53:00
4:53 AM,21.9,18.0,85,30.32,7.0,Calm,Calm,-,N/A,,Clear,0,2013-01-03 10:53:00
5:53 AM,21.9,17.1,82,30.34,7.0,Calm,Calm,-,N/A,,Clear,0,2013-01-03 11:53:00
6:53 AM,21.9,16.0,78,30.36,10.0,WNW,3.5,-,N/A,,Clear,290,2013-01-03 12:53:00
7:53 AM,21.9,17.1,82,30.36,9.0,Calm,Calm,-,N/A,,Clear,0,2013-01-03 13:53:00
8:53 AM,28.9,21.9,75,30.38,10.0,NNW,5.8,-,N/A,,Clear,340,2013-01-03 14:53:00
9:53 AM,33.1,24.1,70,30.41,10.0,WNW,4.6,-,N/A,,Clear,290,2013-01-03 15:53:00
10:53 AM,37.0,26.1,65,30.42,10.0,Calm,Calm,-,N/A,,Clear,0,2013-01-03 16:53:00
11:53 AM,39.0,26.1,60,30.39,10.0,Calm,Calm,-,N/A,,Clear,0,2013-01-03 17:53:00
12:53 PM,42.1,27.0,55,30.38,10.0,Calm,Calm,-,N/A,,Clear,0,2013-01-03 18:53:00
1:53 PM,43.0,26.1,51,30.36,10.0,East,3.5,-,N/A,,Clear,80,2013-01-03 19:53:00
2:53 PM,45.0,24.1,44,30.37,10.0,Calm,Calm,-,N/A,,Clear,0,2013-01-03 20:53:00
3:53 PM,44.1,24.1,45,30.38,10.0,West,5.8,-,N/A,,Clear,280,2013-01-03 21:53:00
4:53 PM,39.0,28.0,65,30.38,10.0,South,4.6,-,N/A,,Clear,180,2013-01-03 22:53:00
5:53 PM,37.0,28.0,70,30.41,10.0,Calm,Calm,-,N/A,,Clear,0,2013-01-03 23:53:00
6:53 PM,33.1,27.0,78,30.42,10.0,SSW,4.6,-,N/A,,Clear,210,2013-01-04 00:53:00
7:53 PM,30.9,27.0,85,30.43,10.0,Calm,Calm,-,N/A,,Clear,0,2013-01-04 01:53:00
8:53 PM,30.0,26.1,85,30.44,10.0,Calm,Calm,-,N/A,,Clear,0,2013-01-04 02:53:00
9:53 PM,28.9,26.1,89,30.44,8.0,Calm,Calm,-,N/A,,Clear,0,2013-01-04 03:53:00
10:53 PM,27.0,24.1,89,30.45,8.0,Calm,Calm,-,N/A,,Clear,0,2013-01-04 04:53:00
11:53 PM,26.1,23.0,88,30.43,7.0,Calm,Calm,-,N/A,,Clear,0,2013-01-04 05:53:00